GLO1851 SBGL-SBPS

Flight info

Callsign GLO1851
Flight time 1h 11m
Altitude 37000
Route IMBAP UZ42 SIRAP DCT OSUNO
Aircraft B737/M-SDFGIKLORWXY/LB1

Departure

Time 2026-04-21 17:27
Airport Rio Galeão – Tom Jobim International Airport (SBGL)

Arrival

Time 2026-04-21 18:39
Airport Porto Seguro International Airport (SBPS)
Time Latitude Longitude Altitude Speed Heading
2026-04-21 16:44 -22.81598 -43.24454 25 ft 0 kts 349°
2026-04-21 17:11 -22.81615 -43.24450 29 ft 4 kts 342°
2026-04-21 17:11 -22.81640 -43.24438 28 ft 4 kts 324°
2026-04-21 17:12 -22.81657 -43.24418 30 ft 4 kts 282°
2026-04-21 17:12 -22.81654 -43.24402 29 ft 0 kts 215°
2026-04-21 17:14 -22.81655 -43.24402 29 ft 0 kts 215°
2026-04-21 17:14 -22.81686 -43.24439 28 ft 10 kts 240°
2026-04-21 17:14 -22.81735 -43.24493 25 ft 10 kts 215°
2026-04-21 17:14 -22.81762 -43.24556 25 ft 11 kts 287°
2026-04-21 17:15 -22.81705 -43.24616 25 ft 13 kts 306°
2026-04-21 17:15 -22.81647 -43.24706 27 ft 16 kts 305°
2026-04-21 17:15 -22.81582 -43.24809 29 ft 17 kts 304°
2026-04-21 17:15 -22.81510 -43.24903 25 ft 16 kts 303°
2026-04-21 17:16 -22.81462 -43.24990 26 ft 11 kts 300°
2026-04-21 17:16 -22.81433 -43.25046 25 ft 7 kts 300°
2026-04-21 17:16 -22.81405 -43.25095 26 ft 13 kts 303°
2026-04-21 17:16 -22.81341 -43.25168 25 ft 14 kts 309°
2026-04-21 17:17 -22.81286 -43.25249 27 ft 13 kts 306°
2026-04-21 17:17 -22.81226 -43.25319 25 ft 13 kts 320°
2026-04-21 17:17 -22.81151 -43.25366 27 ft 12 kts 339°
2026-04-21 17:17 -22.81069 -43.25384 29 ft 11 kts 354°
2026-04-21 17:18 -22.81002 -43.25382 25 ft 9 kts 10°
2026-04-21 17:18 -22.80953 -43.25412 25 ft 9 kts 298°
2026-04-21 17:18 -22.80925 -43.25478 27 ft 11 kts 293°
2026-04-21 17:18 -22.80891 -43.25555 27 ft 11 kts 296°
2026-04-21 17:19 -22.80851 -43.25633 28 ft 13 kts 303°
2026-04-21 17:19 -22.80785 -43.25687 26 ft 12 kts 358°
2026-04-21 17:19 -22.80704 -43.25635 26 ft 17 kts 36°
2026-04-21 17:19 -22.80674 -43.25614 26 ft 0 kts 35°
2026-04-21 17:20 -22.80674 -43.25613 26 ft 0 kts 34°
2026-04-21 17:23 -22.80673 -43.25613 25 ft 0 kts 27°
2026-04-21 17:23 -22.80633 -43.25583 27 ft 5 kts 40°
2026-04-21 17:23 -22.80600 -43.25552 28 ft 7 kts 40°
2026-04-21 17:24 -22.80562 -43.25525 28 ft 6 kts 21°
2026-04-21 17:24 -22.80521 -43.25537 25 ft 6 kts 326°
2026-04-21 17:24 -22.80474 -43.25571 25 ft 11 kts 326°
2026-04-21 17:24 -22.80407 -43.25617 26 ft 12 kts 341°
2026-04-21 17:25 -22.80336 -43.25583 27 ft 12 kts 38°
2026-04-21 17:25 -22.80264 -43.25522 29 ft 13 kts 38°
2026-04-21 17:25 -22.80204 -43.25484 25 ft 4 kts 340°
2026-04-21 17:25 -22.80180 -43.25492 27 ft 1 kts 18°
2026-04-21 17:26 -22.80177 -43.25482 25 ft 0 kts 72°
2026-04-21 17:26 -22.80173 -43.25469 25 ft 9 kts 72°
2026-04-21 17:27 -22.80091 -43.25156 29 ft 78 kts 75°
2026-04-21 17:27 -22.79887 -43.24368 27 ft 136 kts 74°
2026-04-21 17:27 -22.79593 -43.23244 203 ft 166 kts 77°
2026-04-21 17:27 -22.79292 -43.22045 837 ft 169 kts 78°
2026-04-21 17:28 -22.78996 -43.20722 1336 ft 192 kts 80°
2026-04-21 17:28 -22.78690 -43.19235 1847 ft 213 kts 80°
2026-04-21 17:28 -22.78339 -43.17572 2160 ft 246 kts 78°
2026-04-21 17:28 -22.77933 -43.15681 2693 ft 264 kts 78°
2026-04-21 17:29 -22.77504 -43.13693 3788 ft 273 kts 77°
2026-04-21 17:29 -22.77076 -43.11690 5167 ft 274 kts 76°
2026-04-21 17:29 -22.76642 -43.09651 6361 ft 281 kts 77°
2026-04-21 17:29 -22.76208 -43.07606 7746 ft 274 kts 77°
2026-04-21 17:30 -22.75778 -43.05585 8995 ft 277 kts 76°
2026-04-21 17:30 -22.74930 -43.03653 9850 ft 296 kts 49°
2026-04-21 17:30 -22.73252 -43.02310 10604 ft 311 kts 22°
2026-04-21 17:30 -22.71130 -43.01660 11224 ft 324 kts 10°
2026-04-21 17:31 -22.68951 -43.01205 12626 ft 314 kts 10°
2026-04-21 17:31 -22.66800 -43.00729 13775 ft 318 kts 11°
2026-04-21 17:31 -22.64615 -43.00218 14659 ft 325 kts 12°
2026-04-21 17:31 -22.62392 -42.99677 15566 ft 329 kts 12°
2026-04-21 17:32 -22.60908 -42.99311 16181 ft 332 kts 12°
2026-04-21 17:32 -22.57868 -42.98558 17399 ft 338 kts 12°
2026-04-21 17:32 -22.55527 -42.97977 17886 ft 354 kts 13°
2026-04-21 17:32 -22.53087 -42.97371 18081 ft 377 kts 13°
2026-04-21 17:33 -22.50479 -42.96725 18070 ft 387 kts 13°
2026-04-21 17:33 -22.47851 -42.96074 18069 ft 389 kts 13°
2026-04-21 17:33 -22.45211 -42.95420 18068 ft 389 kts 13°
2026-04-21 17:33 -22.42574 -42.94767 18073 ft 389 kts 13°
2026-04-21 17:34 -22.39942 -42.94115 18078 ft 388 kts 13°
2026-04-21 17:34 -22.37305 -42.93464 18083 ft 388 kts 13°
2026-04-21 17:34 -22.34672 -42.92818 18091 ft 389 kts 11°
2026-04-21 17:34 -22.31988 -42.92478 18087 ft 388 kts
2026-04-21 17:35 -22.29329 -42.92642 18088 ft 388 kts 351°
2026-04-21 17:35 -22.26670 -42.93109 18087 ft 388 kts 349°
2026-04-21 17:35 -22.24009 -42.93598 18075 ft 388 kts 350°
2026-04-21 17:35 -22.21347 -42.94063 18070 ft 388 kts 350°
2026-04-21 17:36 -22.18678 -42.94471 18066 ft 388 kts 356°
2026-04-21 17:36 -22.15991 -42.94268 18087 ft 388 kts 12°
2026-04-21 17:36 -22.13425 -42.93318 18370 ft 395 kts 27°
2026-04-21 17:36 -22.11062 -42.91801 19098 ft 395 kts 33°
2026-04-21 17:37 -22.08789 -42.90208 19819 ft 396 kts 34°
2026-04-21 17:37 -22.06477 -42.88559 20442 ft 401 kts 34°
2026-04-21 17:37 -22.04897 -42.87433 20850 ft 404 kts 34°
2026-04-21 17:37 -22.01760 -42.85216 21684 ft 410 kts 33°
2026-04-21 17:38 -21.99356 -42.83534 22278 ft 414 kts 33°
2026-04-21 17:38 -21.96923 -42.81843 22878 ft 418 kts 33°
2026-04-21 17:38 -21.94460 -42.80137 23465 ft 423 kts 33°
2026-04-21 17:38 -21.91974 -42.78419 23960 ft 427 kts 33°
2026-04-21 17:39 -21.89494 -42.76707 24434 ft 431 kts 33°
2026-04-21 17:39 -21.86964 -42.74961 24936 ft 434 kts 33°
2026-04-21 17:39 -21.84416 -42.73204 25429 ft 437 kts 33°
2026-04-21 17:39 -21.81848 -42.71432 25903 ft 440 kts 33°
2026-04-21 17:40 -21.79256 -42.69645 26360 ft 444 kts 32°
2026-04-21 17:40 -21.76647 -42.67848 26827 ft 447 kts 32°
2026-04-21 17:40 -21.74016 -42.66034 27277 ft 451 kts 32°
2026-04-21 17:40 -21.71367 -42.64210 27725 ft 454 kts 32°
2026-04-21 17:41 -21.68731 -42.62395 28145 ft 457 kts 32°
2026-04-21 17:41 -21.66042 -42.60545 28569 ft 461 kts 32°
2026-04-21 17:41 -21.63332 -42.58688 28998 ft 464 kts 31°
2026-04-21 17:41 -21.60540 -42.56929 29400 ft 467 kts 28°
2026-04-21 17:42 -21.57677 -42.55258 29797 ft 470 kts 27°
2026-04-21 17:42 -21.54772 -42.53618 30183 ft 473 kts 27°
2026-04-21 17:42 -21.51845 -42.51978 30505 ft 476 kts 27°
2026-04-21 17:42 -21.48906 -42.50324 30841 ft 478 kts 27°
2026-04-21 17:43 -21.45959 -42.48651 31218 ft 479 kts 27°
2026-04-21 17:43 -21.43019 -42.46971 31685 ft 478 kts 27°
2026-04-21 17:43 -21.40132 -42.45313 32161 ft 477 kts 27°
2026-04-21 17:43 -21.37210 -42.43632 32613 ft 477 kts 27°
2026-04-21 17:44 -21.34282 -42.41947 33018 ft 478 kts 27°
2026-04-21 17:44 -21.31352 -42.40261 33436 ft 478 kts 27°
2026-04-21 17:44 -21.28422 -42.38576 33863 ft 478 kts 27°
2026-04-21 17:44 -21.25492 -42.36892 34278 ft 477 kts 27°
2026-04-21 17:45 -21.22563 -42.35211 34601 ft 478 kts 27°
2026-04-21 17:45 -21.19661 -42.33546 34888 ft 480 kts 27°
2026-04-21 17:45 -21.16715 -42.31857 35192 ft 481 kts 27°
2026-04-21 17:45 -21.13764 -42.30166 35524 ft 481 kts 27°
2026-04-21 17:46 -21.10814 -42.28476 35840 ft 481 kts 27°
2026-04-21 17:46 -21.07857 -42.26782 36126 ft 482 kts 27°
2026-04-21 17:46 -21.04900 -42.25090 36467 ft 482 kts 27°
2026-04-21 17:46 -21.01945 -42.23399 36799 ft 481 kts 27°
2026-04-21 17:47 -20.98992 -42.21710 37062 ft 482 kts 27°
2026-04-21 17:47 -20.96014 -42.20008 37041 ft 487 kts 27°
2026-04-21 17:47 -20.90073 -42.16615 37052 ft 486 kts 27°
2026-04-21 17:48 -20.84153 -42.13235 37060 ft 480 kts 27°
2026-04-21 17:48 -20.78255 -42.09873 37058 ft 481 kts 27°
2026-04-21 17:49 -20.72396 -42.06534 37079 ft 481 kts 27°
2026-04-21 17:49 -20.66531 -42.03194 37077 ft 481 kts 27°
2026-04-21 17:50 -20.60646 -41.99784 37058 ft 483 kts 30°
2026-04-21 17:50 -20.54920 -41.96034 37084 ft 483 kts 32°
2026-04-21 17:51 -20.49278 -41.92203 37060 ft 484 kts 32°
2026-04-21 17:51 -20.43587 -41.88375 37078 ft 484 kts 32°
2026-04-21 17:52 -20.37879 -41.84578 37070 ft 483 kts 31°
2026-04-21 17:52 -20.32166 -41.80796 37060 ft 483 kts 32°
2026-04-21 17:53 -20.26501 -41.77050 37067 ft 482 kts 32°
2026-04-21 17:53 -20.20804 -41.73285 37055 ft 482 kts 32°
2026-04-21 17:54 -20.15111 -41.69524 37059 ft 481 kts 32°
2026-04-21 17:54 -20.09425 -41.65772 37056 ft 481 kts 32°
2026-04-21 17:55 -20.03732 -41.62017 37054 ft 481 kts 32°
2026-04-21 17:55 -19.98076 -41.58291 37045 ft 481 kts 32°
2026-04-21 17:56 -19.92391 -41.54548 37039 ft 481 kts 32°
2026-04-21 17:56 -19.86707 -41.50810 37036 ft 480 kts 32°
2026-04-21 17:57 -19.81025 -41.47076 37032 ft 480 kts 32°
2026-04-21 17:57 -19.75389 -41.43374 37034 ft 479 kts 32°
2026-04-21 17:58 -19.69715 -41.39652 37032 ft 479 kts 32°
2026-04-21 17:58 -19.64041 -41.35932 37035 ft 479 kts 32°
2026-04-21 17:59 -19.58362 -41.32213 37024 ft 480 kts 33°
2026-04-21 17:59 -19.52724 -41.28524 37023 ft 479 kts 33°
2026-04-21 18:00 -19.47054 -41.24816 37029 ft 479 kts 33°
2026-04-21 18:00 -19.41381 -41.21110 37020 ft 479 kts 33°
2026-04-21 18:01 -19.35709 -41.17407 37022 ft 479 kts 33°
2026-04-21 18:01 -19.30039 -41.13709 37025 ft 478 kts 33°
2026-04-21 18:02 -19.24409 -41.10040 37030 ft 478 kts 33°
2026-04-21 18:02 -19.18743 -41.06350 37029 ft 478 kts 33°
2026-04-21 18:03 -19.13080 -41.02666 37029 ft 478 kts 33°
2026-04-21 18:03 -19.07422 -40.98987 37031 ft 477 kts 33°
2026-04-21 18:04 -19.01805 -40.95339 37026 ft 477 kts 33°
2026-04-21 18:04 -18.96160 -40.91675 37038 ft 476 kts 33°
2026-04-21 18:05 -18.90517 -40.88015 37018 ft 476 kts 33°
2026-04-21 18:05 -18.84879 -40.84361 37039 ft 476 kts 33°
2026-04-21 18:06 -18.79278 -40.80734 37029 ft 475 kts 33°
2026-04-21 18:06 -18.73646 -40.77091 37032 ft 474 kts 33°
2026-04-21 18:07 -18.68028 -40.73459 37024 ft 473 kts 33°
2026-04-21 18:07 -18.63370 -40.70450 37022 ft 472 kts 33°
2026-04-21 18:08 -18.56870 -40.66254 37022 ft 471 kts 33°
2026-04-21 18:08 -18.52190 -40.63235 37025 ft 470 kts 33°
2026-04-21 18:09 -18.46645 -40.59661 37019 ft 470 kts 33°
2026-04-21 18:09 -18.41067 -40.56068 37018 ft 470 kts 33°
2026-04-21 18:10 -18.34587 -40.51898 37023 ft 469 kts 33°
2026-04-21 18:10 -18.29918 -40.48896 37024 ft 469 kts 33°
2026-04-21 18:11 -18.24387 -40.45341 37021 ft 469 kts 33°
2026-04-21 18:11 -18.18816 -40.41764 37025 ft 469 kts 33°
2026-04-21 18:12 -18.13253 -40.38195 37020 ft 469 kts 33°
2026-04-21 18:12 -18.07689 -40.34628 37024 ft 468 kts 33°
2026-04-21 18:13 -18.02164 -40.31088 37026 ft 468 kts 33°
2026-04-21 18:13 -17.96608 -40.27531 37022 ft 468 kts 33°
2026-04-21 18:14 -17.88305 -40.22222 37000 ft 457 kts 33°
2026-04-21 18:14 -17.85632 -40.20516 37001 ft 442 kts 33°
2026-04-21 18:15 -17.83046 -40.18866 36994 ft 429 kts 33°
2026-04-21 18:15 -17.80537 -40.17266 37000 ft 415 kts 33°
2026-04-21 18:15 -17.78138 -40.15735 36997 ft 403 kts 34°
2026-04-21 18:15 -17.75782 -40.14231 37003 ft 391 kts 34°
2026-04-21 18:16 -17.73481 -40.12762 37014 ft 387 kts 34°
2026-04-21 18:16 -17.68792 -40.09763 37046 ft 404 kts 34°
2026-04-21 18:17 -17.63922 -40.06655 37026 ft 411 kts 34°
2026-04-21 18:17 -17.59082 -40.03574 37010 ft 409 kts 34°
2026-04-21 18:18 -17.54240 -40.00494 37010 ft 405 kts 34°
2026-04-21 18:18 -17.49441 -39.97439 37009 ft 402 kts 34°
2026-04-21 18:19 -17.44705 -39.94427 37015 ft 399 kts 34°
2026-04-21 18:19 -17.42334 -39.92949 36849 ft 394 kts 32°
2026-04-21 18:19 -17.39904 -39.91573 35913 ft 404 kts 30°
2026-04-21 18:19 -17.37382 -39.90221 34724 ft 421 kts 29°
2026-04-21 18:20 -17.34712 -39.88813 33393 ft 438 kts 29°
2026-04-21 18:20 -17.31947 -39.87351 31959 ft 452 kts 29°
2026-04-21 18:20 -17.29116 -39.85842 30597 ft 462 kts 29°
2026-04-21 18:20 -17.26232 -39.84296 29183 ft 467 kts 29°
2026-04-21 18:21 -17.23339 -39.82736 27778 ft 469 kts 29°
2026-04-21 18:21 -17.20436 -39.81168 26467 ft 469 kts 29°
2026-04-21 18:21 -17.17585 -39.79627 25253 ft 466 kts 29°
2026-04-21 18:21 -17.14714 -39.78076 24085 ft 463 kts 29°
2026-04-21 18:22 -17.11864 -39.76535 22851 ft 458 kts 29°
2026-04-21 18:22 -17.09053 -39.75017 21589 ft 452 kts 29°
2026-04-21 18:22 -17.06278 -39.73519 20394 ft 445 kts 28°
2026-04-21 18:22 -17.03546 -39.72045 19284 ft 438 kts 28°
2026-04-21 18:23 -17.00889 -39.70557 18201 ft 430 kts 30°
2026-04-21 18:23 -16.98335 -39.68984 17015 ft 422 kts 31°
2026-04-21 18:23 -16.95891 -39.67418 15923 ft 414 kts 32°
2026-04-21 18:23 -16.93467 -39.65855 14881 ft 405 kts 31°
2026-04-21 18:24 -16.91090 -39.64333 13882 ft 396 kts 31°
2026-04-21 18:24 -16.88758 -39.62853 12781 ft 388 kts 31°
2026-04-21 18:24 -16.86468 -39.61411 11734 ft 381 kts 30°
2026-04-21 18:24 -16.84051 -39.60399 10758 ft 373 kts
2026-04-21 18:25 -16.81555 -39.60510 10527 ft 346 kts 350°
2026-04-21 18:25 -16.79288 -39.60999 10370 ft 321 kts 347°
2026-04-21 18:25 -16.77184 -39.61512 10237 ft 300 kts 347°
2026-04-21 18:25 -16.75239 -39.61998 10118 ft 282 kts 346°
2026-04-21 18:26 -16.73379 -39.62466 9891 ft 271 kts 346°
2026-04-21 18:26 -16.71557 -39.62929 9427 ft 269 kts 346°
2026-04-21 18:26 -16.69737 -39.63393 8938 ft 269 kts 346°
2026-04-21 18:26 -16.67925 -39.63856 8473 ft 268 kts 346°
2026-04-21 18:27 -16.66118 -39.64320 8020 ft 267 kts 346°
2026-04-21 18:27 -16.64315 -39.64784 7570 ft 266 kts 346°
2026-04-21 18:27 -16.62523 -39.65247 7146 ft 265 kts 346°
2026-04-21 18:27 -16.60735 -39.65713 6712 ft 265 kts 346°
2026-04-21 18:28 -16.58949 -39.66177 6269 ft 265 kts 346°
2026-04-21 18:28 -16.57173 -39.66443 5819 ft 262 kts
2026-04-21 18:28 -16.55608 -39.65662 5682 ft 244 kts 49°
2026-04-21 18:28 -16.54723 -39.64177 5774 ft 246 kts 70°
2026-04-21 18:29 -16.54283 -39.62432 5782 ft 252 kts 84°
2026-04-21 18:29 -16.54072 -39.60602 5785 ft 255 kts 85°
2026-04-21 18:29 -16.53883 -39.58791 5767 ft 245 kts 85°
2026-04-21 18:29 -16.53701 -39.57061 5749 ft 235 kts 86°
2026-04-21 18:30 -16.53523 -39.55420 5742 ft 222 kts 86°
2026-04-21 18:30 -16.53351 -39.53865 5764 ft 212 kts 86°
2026-04-21 18:30 -16.53184 -39.52358 5664 ft 216 kts 85°
2026-04-21 18:30 -16.53007 -39.50782 5425 ft 219 kts 85°
2026-04-21 18:31 -16.52829 -39.49216 5190 ft 218 kts 85°
2026-04-21 18:31 -16.52649 -39.47649 4949 ft 217 kts 85°
2026-04-21 18:31 -16.52470 -39.46088 4717 ft 217 kts 86°
2026-04-21 18:31 -16.52290 -39.44529 4460 ft 216 kts 86°
2026-04-21 18:32 -16.52111 -39.42979 4222 ft 216 kts 86°
2026-04-21 18:32 -16.51932 -39.41443 4069 ft 208 kts 86°
2026-04-21 18:32 -16.51766 -39.40028 4014 ft 192 kts 86°
2026-04-21 18:32 -16.51608 -39.38678 3999 ft 185 kts 86°
2026-04-21 18:33 -16.51455 -39.37362 3997 ft 182 kts 86°
2026-04-21 18:33 -16.51304 -39.36049 4010 ft 185 kts 86°
2026-04-21 18:33 -16.51058 -39.34726 4009 ft 187 kts 78°
2026-04-21 18:33 -16.50700 -39.33425 4008 ft 187 kts 76°
2026-04-21 18:34 -16.50336 -39.32118 3900 ft 189 kts 77°
2026-04-21 18:34 -16.49972 -39.30791 3707 ft 190 kts 77°
2026-04-21 18:34 -16.49618 -39.29493 3518 ft 187 kts 78°
2026-04-21 18:34 -16.49268 -39.28200 3342 ft 185 kts 78°
2026-04-21 18:35 -16.48918 -39.26902 3163 ft 187 kts 78°
2026-04-21 18:35 -16.48568 -39.25603 3017 ft 185 kts 78°
2026-04-21 18:35 -16.48219 -39.24310 2830 ft 185 kts 78°
2026-04-21 18:35 -16.47873 -39.23026 2650 ft 183 kts 78°
2026-04-21 18:36 -16.47532 -39.21761 2460 ft 179 kts 78°
2026-04-21 18:36 -16.47205 -39.20543 2276 ft 169 kts 78°
2026-04-21 18:36 -16.46896 -39.19399 2098 ft 161 kts 79°
2026-04-21 18:36 -16.46601 -39.18310 1964 ft 153 kts 79°
2026-04-21 18:37 -16.46318 -39.17257 1771 ft 154 kts 78°
2026-04-21 18:37 -16.46033 -39.16198 1642 ft 151 kts 78°
2026-04-21 18:37 -16.45754 -39.15165 1437 ft 142 kts 79°
2026-04-21 18:37 -16.45504 -39.14237 1231 ft 128 kts 78°
2026-04-21 18:38 -16.45262 -39.13345 1077 ft 133 kts 79°
2026-04-21 18:38 -16.45002 -39.12423 977 ft 129 kts 78°
2026-04-21 18:38 -16.44773 -39.11520 740 ft 131 kts 78°
2026-04-21 18:38 -16.44533 -39.10627 534 ft 130 kts 75°
2026-04-21 18:39 -16.44289 -39.09711 329 ft 133 kts 79°
2026-04-21 18:39 -16.44040 -39.08799 171 ft 128 kts 78°
2026-04-21 18:39 -16.43872 -39.08170 159 ft 19 kts 74°
2026-04-21 18:39 -16.43900 -39.08141 159 ft 8 kts 164°
2026-04-21 18:40 -16.43959 -39.08124 159 ft 9 kts 164°
2026-04-21 18:40 -16.43993 -39.08114 159 ft 3 kts 165°
2026-04-21 18:40 -16.44006 -39.08112 159 ft 3 kts 177°
2026-04-21 18:40 -16.44022 -39.08134 159 ft 4 kts 253°
2026-04-21 18:41 -16.44028 -39.08154 159 ft 3 kts 253°
2026-04-21 18:41 -16.44031 -39.08164 159 ft 2 kts 254°
2026-04-21 18:41 -16.44038 -39.08188 159 ft 5 kts 254°
2026-04-21 18:41 -16.44046 -39.08220 159 ft 4 kts 254°
2026-04-21 18:42 -16.44059 -39.08246 159 ft 1 kts 205°
2026-04-21 18:42 -16.44072 -39.08242 159 ft 2 kts 165°
2026-04-21 18:42 -16.44086 -39.08238 159 ft 2 kts 165°
2026-04-21 18:42 -16.44095 -39.08235 159 ft 0 kts 165°
2026-04-21 18:43 -16.44097 -39.08235 159 ft 0 kts 165°